Location: Vesunti
(61.5000°N, 22.8333°E)
Time: 23:31:02
(UTC+00:00)

AQUARIUS - Pass Details

Date: 17 February 2020
Orbit: 650 x 653 km, 98.0° (Epoch: 05 April)

Event Time Altitude Azimuth Distance (km) Brightness Sun altitude
Rises 05:13:01 0° 17° (NNE) 2,994 7.6 -7.1°
Reaches altitude 10° 05:15:15 10° 20° (NNE) 2,078 6.9 -6.8°
Maximum altitude 05:19:48 76° 106° (ESE) 683 4.5 -6.3°
Drops below altitude 10° 05:24:18 10° 192° (SSW) 2,063 6.8 -5.8°
Sets 05:26:31 0° 194° (SSW) 2,970 7.6 -5.5°
